Tims Ford Observed Data For Previous 48 Hours

Caption
Day and Hour Reservoir Elevation (behind dam)* Tailwater Elevation (below dam)* Average Hourly Discharge*
12/11/2018 1 AM CST 879.33 750.19 3,697
12/11/2018 2 AM CST 879.31 750.26 3,697
12/11/2018 3 AM CST 879.31 750.24 3,705
12/11/2018 4 AM CST 879.29 750.23 3,698
12/11/2018 5 AM CST 879.29 750.18 3,708
12/11/2018 6 AM CST 879.28 750.16 3,706
12/11/2018 7 AM CST 879.26 750.24 3,715
12/11/2018 8 AM CST 879.26 750.21 3,689
12/11/2018 9 AM CST 879.25 750.13 3,690
12/11/2018 10 AM CST 879.22 750.21 3,690
12/11/2018 11 AM CST 879.22 750.20 3,695
12/11/2018 12 PM CST 879.20 750.28 3,692
12/11/2018 1 PM CST 879.20 750.23 3,712
12/11/2018 2 PM CST 879.18 750.16 3,690
12/11/2018 3 PM CST 879.18 750.28 3,719
12/11/2018 4 PM CST 879.16 750.22 3,697
12/11/2018 5 PM CST 879.15 750.19 3,716
12/11/2018 6 PM CST 879.14 750.22 3,700
12/11/2018 7 PM CST 879.12 750.19 3,712
12/11/2018 8 PM CST 879.12 750.18 3,697
12/11/2018 9 PM CST 879.11 750.17 3,705
12/11/2018 10 PM CST 879.08 750.24 3,705
12/11/2018 11 PM CST 879.08 750.23 3,716
12/12/2018 12 AM CST 879.06 750.26 3,705
12/12/2018 1 AM CST 879.04 750.25 3,714
12/12/2018 2 AM CST 879.05 750.26 3,700
12/12/2018 3 AM CST 879.04 750.25 3,703
12/12/2018 4 AM CST 879.01 750.23 3,707
12/12/2018 5 AM CST 879.01 750.20 3,702
12/12/2018 6 AM CST 879.00 750.20 3,708
12/12/2018 7 AM CST 878.98 750.22 3,708
12/12/2018 8 AM CST 878.96 750.18 3,705
12/12/2018 9 AM CST 878.96 750.18 3,714
12/12/2018 10 AM CST 878.92 750.20 3,703
12/12/2018 11 AM CST 878.93 750.20 3,712
12/12/2018 12 PM CST 878.91 750.18 3,715
12/12/2018 1 PM CST 878.89 750.20 3,707
12/12/2018 2 PM CST 878.89 750.18 3,715
12/12/2018 3 PM CST 878.87 750.19 3,697
12/12/2018 4 PM CST 878.86 750.17 3,714
12/12/2018 5 PM CST 878.83 750.17 3,706
12/12/2018 6 PM CST 878.82 750.22 3,702
12/12/2018 7 PM CST 878.81 750.23 3,707
12/12/2018 8 PM CST 878.80 750.19 3,715
12/12/2018 9 PM CST 878.78 750.17 3,696
12/12/2018 10 PM CST 878.76 750.26 3,702
12/12/2018 11 PM CST 878.74 750.20 3,711
12/13/2018 12 AM CST 878.73 750.23 3,716
12/13/2018 1 AM CST 878.71 750.23 3,704
12/13/2018 2 AM CST 878.69 750.24 3,719
12/13/2018 3 AM CST 878.68 750.22 3,713
12/13/2018 4 AM CST 878.66 750.24 3,717
12/13/2018 5 AM CST 878.65 750.23 3,713
12/13/2018 6 AM CST 878.64 750.24 3,711
12/13/2018 7 AM CST 878.62 750.26 3,716
12/13/2018 8 AM CST 878.60 750.24 3,724
12/13/2018 9 AM CST 878.58 750.28 3,733
12/13/2018 10 AM CST 878.57 750.19 3,717
12/13/2018 11 AM CST 878.54 750.27 3,723
12/13/2018 12 PM CST 878.53 750.22 3,721
12/13/2018 1 PM CST 878.50 750.22 3,717
12/13/2018 2 PM CST 878.49 750.18 3,720
12/13/2018 3 PM CST 878.46 750.20 3,725
12/13/2018 4 PM CST 878.43 750.23 3,729

Elevations are in feet above sea level. Discharges are in cubic feet per second and are reported at the end of the hour.